Starlink 32381

operational
NORAD ID: 61066 Int'l Des: 2024-164 Owner: SPXS Country: US Constellation: starlink
LEOCIRCULAR

Über Starlink 32381

Beschreibung wird geladen...

Live-Position

3D-Globus wird geladen...

Nächste Überflüge

Höhenverlauf

Altitude vs Time

uPlot chart will show altitude changes over time

Zweizeiliger Elementsatz

1 61066U 24164S 25305.27676006 -.00000065 00000-0 99325-5 0 9990
2 61066 53.1600 327.8170 0001353 77.8407 282.2746 15.30193344 63811
Epoch: 1. Nov. 2025 • Age: 36 hours

Aktueller Status

Höhe 493.9 km
Geschwindigkeit 7.62 km/s
Subsatellitenpunkt -51.28°S, 65.12°W
Startdatum 13. Sept. 2024
Alter 1.1 years
Typ internet

Technische Details

Klassifizierung Payload
Masse 730.00 kg
Trockenmasse 700.00 kg
Gesamtmasse 730.00 kg
Länge 0.30 m
Durchmesser 4.10 m
Spannweite 29.00 m
Form Box + pan
Hersteller SPXS
Bus-Typ Starlink V2M
Phasenstatus In Orbit
Besitzer/Staat SPXS/US

Große Konstellationen

Loading constellations...